Find Starlink 37870

NORAD ID: 69432 Int'l Des: 2026-126 Owner: SPXS Country: US Constellation: starlink operational
LEOCIRCULARRETROGRADE

当前视图

正在加载3D地球...

About Starlink 37870

Starlink 37870 (NORAD 69432) is a starlink constellation satellite launched Jun 7, 2026 by SPXS of US. It operates in LEO, CIRCULAR, RETROGRADE orbit with a mass of 575.00 kg.

即将过境

Passes for default location (London). Set your location on the main map for personalized predictions.

高度历史

Loading altitude history...

两行轨道根数

1 69432U 26126N 26207.25003472 -.00738510 00000-0 -12481-1 0 9994
2 69432 97.2848 69.1821 0001314 95.6324 13.9505 15.54128266 5906
Epoch: Jul 26, 2026 • Age: 5 hours

当前状态

高度 435.0 km
远地点 / 近地点 N/A
速度 7.65 km/s
星下点 -82.64°S, 34.92°E
发射日期 Jun 7, 2026
运行时间 0.1 years
类型 internet

技术详情

分类 Payload
质量 575.00 kg
干质量 530.00 kg
总质量 575.00 kg
长度 0.30 m
直径 4.10 m
跨度 29.00 m
形状 Box + pan
制造商 SPXS
平台类型 Starlink V2MO
阶段状态 In Orbit
所有者/国家 SPXS/US

Most Searched